Toledo, OH

8:34 AM EDT on September 21, 2017 (GMT -0400)
Toledo Express

Weather History for KTOL - February, 2012

Change the Weather History Date:

Thursday, February 16, 2012

  Actual Average Record
Temperature  
Mean Temperature 38 °F 28 °F  
Max Temperature 45 °F 36 °F 65 °F (1883)
Min Temperature 30 °F 21 °F -9 °F (2015)
Degree Days  
Heating Degree Days 27 37  
Month to date heating degree days 528 610  
Since 1 July heating degree days 3624 4159  
Cooling Degree Days 0 0  
Month to date cooling degree days 0 0  
Year to date cooling degree days 0 0  
Moisture  
Dew Point 36 °F    
Average Humidity 85    
Maximum Humidity 100    
Minimum Humidity 70    
Precipitation  
Precipitation 0.10 in 0.07 in 1.51 in (1976)
Month to date precipitation 0.45 1.13  
Year to date precipitation 2.87 3.18  
Snow  
Snow 0.00 in 0.30 in - ()
Month to date snowfall 3.3 5.7  
Since 1 July snowfall 14.7 26.8  
Snow Depth 0.00 in    
Sea Level Pressure  
Sea Level Pressure 29.99 in    
Wind  
Wind Speed 8 mph (WSW)    
Max Wind Speed 18 mph    
Max Gust Speed 23 mph    
Visibility 4 miles    
Events Rain    
T = Trace of Precipitation, MM = Missing Value Source: NWS Daily Summary

Daily Weather History Graph

Daily Weather History Graph

Search for Another Location

Airport or City:

Trip Planner

Search our weather history database for the weather conditions in past years. The results will help you decide how hot, cold, wet, or windy it might be!

Date:

Astronomy

Feb. 16, 2012 Rise Set
Actual Time 7:29 AM EST 6:09 PM EST
Civil Twilight 7:01 AM EST 6:37 PM EST
Nautical Twilight 6:28 AM EST 7:10 PM EST
Astronomical Twilight 5:56 AM EST 7:42 PM EST
Moon 3:27 AM EST (2/16) 12:57 PM EST (2/16)
Length of Visible Light 11h 36m
Length of Day
10h 39m
Waning Crescent, 28% of the Moon is Illuminated
Feb 16
Waning Crescent
Feb 21
New
Feb 29
First Quarter
Mar 8
Full
Mar 14
Last Quarter

Hourly Weather History & Observations

Time (EST) Temp. Windchill Dew Point Humidity Pressure Visibility Wind Dir Wind Speed Gust Speed Precip Events Conditions
12:52 AM 37.0 °F 33.3 °F 35.1 °F 93% 30.04 in 4.0 mi SSE 4.6 mph - 0.01 in Rain Light Rain
1:17 AM 37.4 °F - 35.6 °F 93% 30.02 in 4.0 mi Calm Calm - 0.01 in Rain Light Rain
1:34 AM 37.4 °F 33.8 °F 35.6 °F 93% 30.02 in 4.0 mi South 4.6 mph - 0.01 in Rain Light Rain
1:52 AM 37.9 °F 34.4 °F 36.0 °F 93% 30.04 in 3.0 mi South 4.6 mph - 0.01 in Rain Light Rain
2:52 AM 37.9 °F - 36.0 °F 93% 30.02 in 4.0 mi Calm Calm - 0.02 in   Overcast
3:52 AM 37.9 °F 35.5 °F 36.0 °F 93% 29.99 in 4.0 mi South 3.5 mph - N/A   Overcast
4:35 AM 37.4 °F 34.9 °F 35.6 °F 93% 29.97 in 3.0 mi South 3.5 mph - 0.01 in Rain Light Rain
4:52 AM 37.9 °F 35.5 °F 36.0 °F 93% 29.99 in 3.0 mi SSW 3.5 mph - 0.02 in Rain Light Rain
5:27 AM 37.4 °F - 37.4 °F 100% 29.96 in 3.0 mi Calm Calm - 0.04 in Rain Light Rain
5:52 AM 37.9 °F 35.5 °F 37.0 °F 97% 29.97 in 3.0 mi South 3.5 mph - 0.04 in Rain Light Rain
5:59 AM 37.4 °F - 37.4 °F 100% 29.95 in 2.5 mi Calm Calm - 0.00 in Rain Light Rain
6:15 AM 39.2 °F - 37.4 °F 93% 29.95 in 3.0 mi Calm Calm - 0.00 in Rain Light Rain
6:37 AM 39.2 °F - 37.4 °F 93% 29.95 in 2.5 mi Calm Calm - 0.00 in   Overcast
6:52 AM 37.9 °F - 37.0 °F 97% 29.96 in 2.5 mi Calm Calm - 0.00 in Rain Light Rain
7:52 AM 37.9 °F 34.4 °F 37.0 °F 97% 29.95 in 1.5 mi South 4.6 mph - 0.00 in   Overcast
8:05 AM 37.4 °F 33.8 °F 37.4 °F 100% 29.94 in 1.2 mi SSW 4.6 mph - N/A   Overcast
8:14 AM 39.2 °F 35.9 °F 37.4 °F 93% 29.94 in 1.5 mi South 4.6 mph - N/A   Overcast
8:52 AM 39.0 °F 35.7 °F 37.9 °F 96% 29.96 in 1.5 mi South 4.6 mph - N/A   Overcast
9:03 AM 39.2 °F 35.0 °F 37.4 °F 93% 29.95 in 1.5 mi SSW 5.8 mph - N/A   Overcast
9:20 AM 39.2 °F 35.9 °F 37.4 °F 93% 29.95 in 1.2 mi SSW 4.6 mph - N/A   Overcast
9:52 AM 39.9 °F 35.8 °F 39.0 °F 97% 29.97 in 1.0 mi SW 5.8 mph - N/A   Overcast
10:02 AM 39.2 °F 34.2 °F 39.2 °F 100% 29.95 in 0.5 mi WSW 6.9 mph - N/A   Overcast
10:40 AM 41.0 °F 35.2 °F 39.2 °F 93% 29.94 in 1.8 mi WSW 9.2 mph - N/A   Overcast
10:49 AM 41.0 °F 35.8 °F 39.2 °F 93% 29.94 in 2.5 mi West 8.1 mph - N/A   Overcast
10:52 AM 42.1 °F 38.4 °F 39.9 °F 92% 29.95 in 2.5 mi West 5.8 mph - N/A   Overcast
11:06 AM 42.8 °F 39.3 °F 39.2 °F 87% 29.94 in 3.0 mi West 5.8 mph - N/A   Overcast
11:17 AM 42.8 °F 38.0 °F 39.2 °F 87% 29.95 in 3.0 mi West 8.1 mph - N/A   Overcast
11:32 AM 42.8 °F 38.6 °F 39.2 °F 87% 29.94 in 4.0 mi WSW 6.9 mph - N/A   Overcast
11:52 AM 44.1 °F 40.8 °F 39.9 °F 85% 29.96 in 5.0 mi SW 5.8 mph - N/A   Overcast
12:52 PM 44.1 °F 37.4 °F 39.9 °F 85% 29.96 in 9.0 mi West 13.8 mph - N/A   Overcast
1:52 PM 43.0 °F 36.8 °F 39.0 °F 86% 29.96 in 8.0 mi West 11.5 mph - N/A   Overcast
2:52 PM 42.1 °F 34.9 °F 37.9 °F 85% 29.96 in 8.0 mi West 13.8 mph 19.6 mph N/A   Overcast
3:32 PM 42.8 °F 34.5 °F 37.4 °F 81% 29.97 in 10.0 mi West 18.4 mph 23.0 mph N/A   Overcast
3:52 PM 41.0 °F 33.1 °F 36.0 °F 82% 29.99 in 10.0 mi West 15.0 mph 20.7 mph N/A   Overcast
4:19 PM 42.8 °F 36.2 °F 35.6 °F 76% 29.98 in 10.0 mi West 12.7 mph - N/A   Scattered Clouds
4:48 PM 42.8 °F 35.8 °F 35.6 °F 76% 29.99 in 9.0 mi West 13.8 mph - N/A   Mostly Cloudy
4:52 PM 42.1 °F 35.2 °F 35.1 °F 76% 30.00 in 9.0 mi West 12.7 mph - N/A   Mostly Cloudy
5:19 PM 42.8 °F 37.0 °F 35.6 °F 76% 29.99 in 8.0 mi West 10.4 mph - N/A   Overcast
5:52 PM 42.1 °F 35.2 °F 34.0 °F 73% 30.03 in 7.0 mi West 12.7 mph - N/A   Overcast
6:52 PM 41.0 °F 33.5 °F 33.1 °F 73% 30.06 in 7.0 mi West 13.8 mph - N/A   Overcast
7:52 PM 37.9 °F 30.9 °F 30.9 °F 76% 30.08 in 6.0 mi West 10.4 mph - N/A   Haze
8:52 PM 35.1 °F 27.9 °F 30.0 °F 82% 30.09 in 5.0 mi West 9.2 mph - N/A   Haze
9:52 PM 34.0 °F 27.2 °F 30.0 °F 85% 30.10 in 4.0 mi West 8.1 mph - N/A   Clear
10:52 PM 30.9 °F 24.3 °F 28.0 °F 89% 30.11 in 4.0 mi WSW 6.9 mph - N/A   Clear
11:52 PM 33.1 °F 27.7 °F 28.9 °F 85% 30.12 in 5.0 mi WSW 5.8 mph - N/A   Clear